GW4669 Weather Reports


time (UTC)temp
F
wind
direction
speed
knots
gust
knots
rain 1hr
in
rain 24hr
in
rain mn
in
humidity
%
barometer
mb
20260504081823 44 173 1.7 2.6 0.00 0.00 0.00 79 1008.8
20260504081320 43 166 2.6 4.3 0.00 0.00 0.00 83 1008.6
20260504080816 42 137 1.7 3.5 0.00 0.00 0.00 89 1008.5
20260504080313 42 125 1.7 3.5 0.00 0.00 0.00 91 1008.9
20260504070235 43 215 0.0 1.7 0.00 0.00 0.00 94 1008.8
20260504060155 44 136 0.9 1.7 0.00 0.00 0.00 94 1009.1
20260504050624 44 109 1.7 2.6 0.00 0.00 0.00 93 1009.6
20260504050121 44 106 0.9 1.7 0.00 0.00 0.00 93 1009.6
20260504045618 44 143 0.0 1.7 0.00 0.00 0.00 93 1009.6
20260504045112 44 153 0.9 1.7 0.00 0.00 0.00 93 1009.7
20260504044611 44 146 1.7 2.6 0.00 0.00 0.00 93 1009.7
20260504044107 44 150 1.7 2.6 0.00 0.00 0.00 93 1009.7
20260504043604 44 171 0.0 1.7 0.00 0.00 0.00 93 1009.8
20260504043102 44 174 0.9 1.7 0.00 0.00 0.00 93 1009.8
20260504042559 44 132 0.0 1.7 0.00 0.00 0.00 93 1009.9
20260504042055 44 97 0.0 0.9 0.00 0.00 0.00 92 1009.8
20260504041551 45 186 0.9 1.7 0.00 0.00 0.00 92 1009.9
20260504041048 45 106 0.9 1.7 0.00 0.00 0.00 92 1010.0
20260504040545 45 103 1.7 1.7 0.00 0.00 0.00 92 1010.1
20260504040041 45 5 0.9 2.6 0.00 0.00 0.00 92 1010.2
20260504035538 45 8 1.7 1.7 0.00 0.00 0.00 92 1009.9
20260504035035 45 146 1.7 2.6 0.00 0.00 0.00 92 1009.9
20260504034533 45 289 0.9 6.1 0.00 0.00 0.00 92 1009.7
20260504034029 45 160 1.7 2.6 0.00 0.00 0.00 91 1009.9
20260504033528 45 210 1.7 2.6 0.00 0.00 0.00 91 1009.6
20260504033024 45 63 0.9 2.6 0.00 0.00 0.00 90 1009.6
20260504032521 45 153 1.7 4.3 0.00 0.00 0.00 90 1010.2
20260504032018 45 129 0.9 2.6 0.00 0.00 0.00 89 1010.5
20260504031515 46 314 0.9 2.6 0.00 0.00 0.00 89 1010.8
20260504031011 45 224 0.0 0.9 0.00 0.00 0.00 88 1010.7
20260504030509 45 206 0.0 0.9 0.00 0.00 0.00 86 1010.3
20260504030005 46 158 0.9 2.6 0.00 0.00 0.00 84 1010.2
20260504025502 46 112 0.9 1.7 0.00 0.00 0.00 82 1010.5
20260504024958 47 125 0.0 1.7 0.00 0.00 0.00 80 1010.5
20260504024455 47 59 0.0 0.9 0.00 0.00 0.00 78 1010.6
20260504023953 48 129 0.9 1.7 0.00 0.00 0.00 75 1010.8
20260504023449 48 313 3.5 5.2 0.00 0.00 0.00 74 1010.9
20260504022944 48 134 1.7 2.6 0.00 0.00 0.00 72 1010.9
20260504022441 48 6 0.9 1.7 0.00 0.00 0.00 71 1010.9
20260504021938 49 321 1.7 2.6 0.02 0.00 0.00 67 1010.7
20260504021435 49 311 3.5 4.3 0.00 0.00 0.00 65 1010.6
20260504020932 50 275 0.0 4.3 0.00 0.00 0.00 64 1010.6
20260504020429 50 284 0.9 3.5 0.00 0.00 0.00 62 1010.5
20260504015926 50 298 3.5 9.6 0.00 0.00 0.00 61 1010.5
20260504015421 49 56 0.9 1.7 0.00 0.00 0.00 66 1010.3
20260504014917 49 241 0.0 1.7 0.00 0.00 0.00 62 1010.4
20260504014414 50 75 0.0 1.7 0.00 0.00 0.00 61 1010.2
20260504013911 50 128 0.0 2.6 0.00 0.00 0.00 58 1010.1
20260504013409 51 338 0.9 3.5 0.00 0.00 0.00 57 1010.3
20260504012905 50 310 1.7 3.5 0.00 0.00 0.00 54 1010.2
20260504012403 50 95 0.0 3.5 0.00 0.00 0.00 55 1010.1
20260504011900 50 341 3.5 4.3 0.00 0.00 0.00 53 1010.4
20260504011357 51 106 1.7 1.7 0.00 0.00 0.00 53 1010.0
20260504010853 51 296 0.0 1.7 0.00 0.00 0.00 52 1010.1
20260504010348 51 237 0.9 2.6 0.00 0.00 0.00 52 1010.0
20260504005844 51 261 0.0 1.7 0.00 0.00 0.00 51 1010.0
20260504005341 51 281 3.5 6.1 0.00 0.00 0.00 51 1010.2
20260504004839 51 205 2.6 3.5 0.00 0.00 0.00 52 1009.9
20260504004336 51 30 0.0 6.1 0.00 0.00 0.00 52 1010.0
20260504003832 51 345 0.0 4.3 0.00 0.00 0.00 53 1010.1
20260504003330 51 339 4.3 6.1 0.00 0.00 0.00 53 1010.1
20260504002826 50 352 0.9 4.3 0.00 0.00 0.00 52 1010.0
20260504002323 50 121 0.9 1.7 0.00 0.00 0.00 56 1010.2
20260504001821 50 236 0.0 1.7 0.00 0.00 0.00 52 1010.2
20260504001318 50 261 0.0 0.9 0.00 0.00 0.00 52 1010.1
20260504000815 50 130 0.0 0.9 0.00 0.00 0.00 52 1009.9
20260504000312 50 189 0.0 0.9 0.00 0.00 0.00 50 1010.0
20260503235809 51 44 0.0 0.9 0.00 0.00 0.00 48 1010.0
20260503235307 51 221 0.0 0.9 0.00 0.00 0.00 49 1010.0
20260503234804 51 223 0.0 0.9 0.00 0.00 0.00 47 1009.9
20260503234302 51 275 0.0 0.9 0.00 0.00 0.00 46 1009.6
20260503233759 52 310 1.7 3.5 0.00 0.00 0.00 43 1009.6
20260503233255 52 287 2.6 4.3 0.00 0.00 0.00 43 1009.5
20260503232752 52 328 0.0 1.7 0.00 0.00 0.00 43 1009.6
20260503232249 52 297 1.7 3.5 0.00 0.00 0.00 43 1009.4
20260503231747 52 347 1.7 4.3 0.00 0.00 0.00 42 1009.7
20260503231244 53 43 0.0 2.6 0.00 0.00 0.00 42 1009.6
20260503230740 53 306 1.7 6.1 0.00 0.00 0.00 41 1009.6
20260503230238 53 292 1.7 7.0 0.00 0.00 0.00 40 1009.6
20260503225735 53 275 0.0 4.3 0.00 0.00 0.00 41 1009.8
20260503225234 53 340 2.6 4.3 0.00 0.00 0.00 41 1009.7
20260503224732 53 317 2.6 5.2 0.00 0.00 0.00 40 1009.6
20260503224230 53 284 1.7 2.6 0.00 0.00 0.00 41 1009.7
20260503223727 53 316 2.6 6.1 0.00 0.00 0.00 40 1009.7
20260503223225 53 287 1.7 6.1 0.00 0.00 0.00 40 1009.5
20260503222721 53 251 0.0 9.6 0.00 0.00 0.00 40 1009.7
20260503222219 53 292 5.2 8.7 0.00 0.00 0.00 39 1009.6
20260503221717 53 317 4.3 7.8 0.00 0.00 0.00 38 1009.6
20260503221214 53 308 3.5 10.4 0.00 0.00 0.00 38 1009.5
20260503220705 54 310 2.6 6.1 0.00 0.00 0.00 37 1009.4
20260503220201 53 321 1.7 12.2 0.00 0.00 0.00 37 1009.5
20260503215658 54 156 0.9 12.2 0.00 0.00 0.00 37 1009.5
20260503215155 53 265 2.6 17.4 0.00 0.00 0.00 37 1009.5
20260503214654 55 323 9.6 13.9 0.00 0.00 0.00 36 1009.5
20260503214149 54 291 3.5 13.9 0.00 0.00 0.00 36 1009.6
20260503213644 53 351 1.7 4.3 0.00 0.00 0.00 39 1009.6
20260503213140 53 328 9.6 13.0 0.00 0.00 0.00 37 1009.6
20260503212637 53 286 4.3 8.7 0.00 0.00 0.00 37 1009.4
20260503212135 53 270 1.7 7.8 0.00 0.00 0.00 36 1009.5
20260503211632 53 195 1.7 17.4 0.00 0.00 0.00 36 1009.4
20260503211127 53 295 5.2 6.1 0.00 0.00 0.00 35 1009.4
20260503210623 53 271 5.2 15.6 0.00 0.00 0.00 35 1009.5
20260503210120 54 351 3.5 9.6 0.00 0.00 0.00 34 1009.4
20260503205616 53 250 1.7 6.1 0.00 0.00 0.00 35 1009.4
20260503205112 53 309 6.1 13.0 0.00 0.00 0.00 34 1009.3
20260503204609 53 316 3.5 6.1 0.00 0.00 0.00 34 1009.4
20260503204107 53 293 6.1 12.2 0.00 0.00 0.00 33 1009.6
20260503203603 53 316 1.7 9.6 0.00 0.00 0.00 33 1009.6
20260503203101 53 334 9.6 9.6 0.00 0.00 0.00 33 1009.6
20260503202558 54 313 4.3 8.7 0.00 0.00 0.00 32 1009.6
20260503202056 54 327 7.8 13.0 0.00 0.00 0.00 31 1009.3
20260503201554 55 304 2.6 13.0 0.00 0.00 0.00 30 1009.7
20260503201051 54 311 8.7 13.0 0.00 0.00 0.00 30 1009.5
20260503200547 53 330 2.6 9.6 0.00 0.00 0.00 29 1009.6
20260503200044 55 6 0.9 9.6 0.00 0.00 0.00 29 1009.7
20260503195541 56 252 7.8 14.8 0.00 0.00 0.00 27 1009.7
20260503195038 55 147 1.7 18.2 0.00 0.00 0.00 28 1009.7
20260503194535 56 304 5.2 14.8 0.00 0.00 0.00 27 1009.7
20260503194035 55 264 2.6 13.9 0.00 0.00 0.00 26 1009.9
20260503193532 55 318 3.5 9.6 0.00 0.00 0.00 26 1009.8
20260503193027 54 324 7.8 14.8 0.00 0.00 0.00 28 1009.8
20260503192523 55 315 0.9 5.2 0.00 0.00 0.00 27 1009.9
20260503192019 55 15 5.2 9.6 0.00 0.00 0.00 29 1010.0
20260503191516 53 291 7.0 16.5 0.00 0.00 0.00 28 1010.2
20260503191013 53 275 8.7 22.6 0.00 0.00 0.00 28 1010.4
20260503190510 54 287 4.3 10.4 0.00 0.00 0.00 29 1010.3
20260503190008 53 299 6.1 17.4 0.00 0.00 0.00 29 1010.6
20260503185504 53 290 2.6 18.2 0.00 0.00 0.00 29 1010.5
20260503185003 53 335 2.6 13.0 0.00 0.00 0.00 29 1010.5
20260503184500 53 325 13.9 20.9 0.00 0.00 0.00 30 1010.6
20260503183956 52 265 1.7 15.6 0.00 0.00 0.00 31 1010.8
20260503183453 53 309 13.9 20.9 0.00 0.00 0.00 29 1010.9
20260503182950 54 313 7.0 17.4 0.00 0.00 0.00 31 1011.2
20260503182449 54 326 7.8 7.8 0.00 0.00 0.00 32 1011.0
20260503181946 52 66 1.7 15.6 0.00 0.00 0.00 31 1011.1
20260503181443 54 255 3.5 11.3 0.00 0.00 0.00 30 1011.0
20260503180939 51 304 9.6 15.6 0.00 0.00 0.00 29 1011.0
20260503180437 51 278 8.7 18.2 0.00 0.00 0.00 31 1011.1
20260503175934 51 297 5.2 16.5 0.00 0.00 0.00 32 1010.9
20260503175432 52 262 8.7 13.9 0.00 0.00 0.00 30 1010.9
20260503174927 52 313 9.6 14.8 0.00 0.00 0.00 30 1011.1
20260503174426 52 268 4.3 22.6 0.00 0.00 0.00 31 1011.2
20260503173926 50 269 4.3 13.9 0.00 0.00 0.00 32 1011.3
20260503173422 52 239 2.6 9.6 0.00 0.00 0.00 35 1011.3
20260503172919 50 329 2.6 7.0 0.00 0.00 0.00 34 1011.3
20260503172417 49 340 3.5 12.2 0.00 0.00 0.00 35 1011.3
20260503171912 51 295 2.6 12.2 0.00 0.00 0.00 34 1011.2
20260503171409 51 294 3.5 13.0 0.00 0.00 0.00 37 1011.5
20260503170907 50 259 3.5 13.0 0.00 0.00 0.00 35 1011.4
20260503170403 51 188 2.6 16.5 0.00 0.00 0.00 35 1011.6
20260503150755 46 334 3.5 8.7 0.00 0.00 0.00 44 1012.6
20260503150251 48 236 0.9 10.4 0.00 0.00 0.00 46 1012.4
20260503140216 46 296 6.1 6.1 0.00 0.00 0.00 47 1012.5
20260503131145 43 307 5.2 12.2 0.00 0.00 0.00 50 1013.0
20260503130643 43 337 6.1 13.0 0.00 0.00 0.00 52 1012.9
20260503130140 43 350 1.7 11.3 0.00 0.00 0.00 54 1013.0
20260503120105 40 314 2.6 5.2 0.00 0.00 0.00 72 1012.7
20260503110533 39 305 4.3 7.0 0.00 0.00 0.00 75 1012.5